Casablanca, Morocco

10:12 AM WET on February 25, 2017 (GMT +0000)
Anfa

Weather History for GMMC - December, 2013

Change the Weather History Date:

Thursday, December 12, 2013

  Actual Average Record
Temperature  
Mean Temperature 60 °F -  
Max Temperature 67 °F 62 °F - ()
Min Temperature 53 °F 43 °F - ()
Degree Days  
Heating Degree Days 5    
Growing Degree Days 10 (Base 50)    
Moisture  
Dew Point 54 °F    
Average Humidity 79    
Maximum Humidity 100    
Minimum Humidity 37    
Precipitation  
Precipitation 0.00 in 0.09 in - ()
Sea Level Pressure  
Sea Level Pressure 30.22 in    
Wind  
Wind Speed 2 mph ()    
Max Wind Speed 5 mph    
Max Gust Speed -    
Visibility 4.3 miles    
Events      
T = Trace of Precipitation, MM = Missing Value Source: Averaged Metar Reports

Daily Weather History Graph

Daily Weather History Graph

Search for Another Location

Airport or City:

Trip Planner

Search our weather history database for the weather conditions in past years. The results will help you decide how hot, cold, wet, or windy it might be!

Date:

Astronomy

Dec. 12, 2013 Rise Set
Actual Time 7:25 AM WET 5:23 PM WET
Civil Twilight 6:58 AM WET 5:50 PM WET
Nautical Twilight 6:27 AM WET 6:21 PM WET
Astronomical Twilight 5:56 AM WET 6:52 PM WET
Moon 2:13 PM WET (12/12) 2:45 AM WET (12/12)
Length of Visible Light 10h 52m
Length of Day
9h 57m
Waxing Gibbous, 78% of the Moon is Illuminated
Dec 12
Waxing Gibbous
Dec 17
Full
Dec 25
Last Quarter
Jan 1
New
Jan 8
First Quarter

Hourly Weather History & Observations

Time (WET) Temp. Heat Index Dew Point Humidity Pressure Visibility Wind Dir Wind Speed Gust Speed Precip Events Conditions
12:00 AM 56 °F - 53 °F 86% 30.26 in 4 mi Calm Calm - -   Scattered Clouds
12:00 AM 55.4 °F - 53.6 °F 94% 30.21 in 3.7 mi Calm Calm - N/A   Unknown
1:00 AM 53.6 °F - 51.8 °F 94% 30.18 in 3.7 mi Calm Calm - N/A   Unknown
2:00 AM 53.6 °F - 51.8 °F 94% 30.18 in 3.7 mi Calm Calm - N/A   Unknown
3:00 AM 58 °F - 52 °F 73% 30.22 in 4 mi NW 2.3 mph - -   Scattered Clouds
3:00 AM 57.2 °F - 51.8 °F 82% 30.18 in 3.7 mi NW 2.3 mph - N/A   Unknown
4:00 AM 55.4 °F - 51.8 °F 88% 30.18 in 3.7 mi Calm Calm - N/A   Unknown
5:00 AM 55.4 °F - 51.8 °F 88% 30.18 in 3.7 mi East 2.3 mph - N/A   Unknown
6:00 AM 57 °F - 54 °F 87% 30.22 in 4 mi NNE 2.3 mph - -   Scattered Clouds
6:00 AM 57.2 °F - 53.6 °F 88% 30.18 in 3.7 mi NNE 2.3 mph - N/A   Unknown
7:00 AM 53.6 °F - 53.6 °F 100% 30.18 in 3.7 mi Calm Calm - N/A   Unknown
8:00 AM 53.6 °F - 51.8 °F 94% 30.21 in 5.0 mi SSW 4.6 mph - N/A   Unknown
9:00 AM 60 °F - 57 °F 86% 30.26 in - Calm Calm - -   Scattered Clouds
9:00 AM 60.8 °F - 57.2 °F 88% 30.21 in 3.1 mi Calm Calm - N/A   Unknown
10:00 AM 62.6 °F - 59.0 °F 88% 30.24 in 3.1 mi NE 4.6 mph - N/A   Unknown
11:00 AM 84.2 °F 83.0 °F 55.4 °F 37% 30.21 in 5.0 mi NE 4.6 mph - N/A   Clear
12:00 PM 66 °F - 55 °F 60% 30.27 in 6 mi NE 4.6 mph - -   Partly Cloudy
12:00 PM 66.2 °F - 55.4 °F 68% 30.24 in - NE 4.6 mph - N/A   Clear
1:00 PM 68.0 °F - 53.6 °F 60% 30.24 in - NE 4.6 mph - N/A   Clear
2:00 PM 68.0 °F - 53.6 °F 60% 30.24 in - NE 4.6 mph - N/A   Clear
3:00 PM 66 °F - 51 °F 49% 30.24 in 6 mi NE 4.6 mph - -   Scattered Clouds
3:00 PM 66.2 °F - 51.8 °F 60% 30.21 in - NE 4.6 mph - N/A   Clear
4:00 PM 66.2 °F - 51.8 °F 60% 30.21 in - NE 4.6 mph - N/A   Clear
5:00 PM 62.6 °F - 53.6 °F 72% 30.21 in - ENE 4.6 mph - N/A   Clear
6:00 PM 63 °F - 53 °F 60% 30.26 in 6 mi ENE 4.6 mph - -   Scattered Clouds
6:00 PM 60.8 °F - 53.6 °F 77% 30.24 in - ENE 4.6 mph - N/A   Clear
7:00 PM 59.0 °F - 53.6 °F 82% 30.24 in - ENE 4.6 mph - N/A   Clear
8:00 PM 57.2 °F - 55.4 °F 94% 30.24 in - ENE 2.3 mph - N/A   Clear
9:00 PM 57 °F - 54 °F 88% 30.27 in 6 mi Calm Calm - -  
9:00 PM 57.2 °F - 55.4 °F 94% 30.21 in - Calm Calm - N/A   Clear
10:00 PM 57.2 °F - 55.4 °F 94% 30.24 in - Calm Calm - N/A   Clear
11:00 PM 57.2 °F - 55.4 °F 94% 30.24 in - NW 2.3 mph - N/A   Clear